Powrót do katalogu

STARLINK-3267

AktywnyŁącznośćVLEO
NORAD 50197·PAYLOAD·🇺🇸 United States

Wystrzelony Dec 18, 2021 z Vandenberg Space Force Base

Loading…

Następne Przeloty (najbliższe 24 godziny)

TLE

ŚwieżeSource: CelesTrak SupGP

Epoka: Sep 14, 2026, 21:25 UTC

1 50197C 21125AT  26257.89284722  .00072794  00000+0  21501-2 0  2573
2 50197  53.1583  99.6135 0001329  79.9467 227.8937 15.34362930    14

Śledź STARLINK-3267 w czasie rzeczywistym z AllMySat

Download on the App Store